User: anonymous   Login
Location: Holyhead Bay
(53.3667°N, 4.6667°W)
Time: 21:53:00
(UTC+00:00)
Language:

AISSAT 1 - Orbit

View from above orbital plane
View from above orbital plane
View from above satellite
View from above satellite

Ground track
Ground track

The orbit data is extracted from the following two-line orbital elements,

1 36797U 10035C   21175.46508187  .00000171  00000-0  25967-4 0  9998
2 36797  98.2175 341.6954 0009770 252.0445 107.9705 14.86509325593383
Epoch (UTC): 24 June 2021 11:09:43
Eccentricity: 0.0009770
inclination: 98.2175°
perigee height: 602 km
apogee height: 615 km
right ascension of ascending node: 341.6954°
argument of perigee: 252.0445°
revolutions per day: 14.86509325
mean anomaly at epoch: 107.9705°
orbit number at epoch: 59338

The dashed part of the orbit path shows where the satellite is in the earth's shadow,  

DLR